Booneville, Arkansas, United States (72927)
Lat: 35.14N, Lon: 93.92W
Wx Zone: ARZ030
Local Info
Past Weather Observations for Wednesday, January 21, 2015

NOTE: This archive is for the closest National Weather Service station to Booneville. Information may differ from the station used for current weather conditions.

Click here for Long-term Archive

Time Weather Temperature Dewpoint Humidity Pressure Winds Precip Visibility
23:53
Overcast
46°F / 8°C 28°F / -2°C 50% 30.3 in
(1026 mb)
SE 3.5 mph
(SE 6 kph)
- 10SM
22:53
Overcast
48°F / 9°C 28°F / -2°C 46% 30.27 in
(1025 mb)
NE 5.8 mph
(NE 9 kph)
- 10SM
21:53
Overcast
48°F / 9°C 28°F / -2°C 46% 30.27 in
(1025 mb)
NNE 6.9 mph
(NNE 11 kph)
- 10SM
20:53
Mostly Cloudy
50°F / 10°C 28°F / -2°C 43% 30.24 in
(1024 mb)
NE 8.1 mph
(NE 13 kph)
- 10SM
19:53
Overcast
52°F / 11°C 28°F / -2°C 41% 30.24 in
(1024 mb)
NNE 8.1 mph
(NNE 13 kph)
- 10SM
18:53
Clear
52°F / 11°C 28°F / -2°C 41% 30.24 in
(1024 mb)
N 8.1 mph
(N 13 kph)
- 10SM
17:53
Clear
54°F / 12°C 27°F / -3°C 35% 30.24 in
(1024 mb)
N 8.1 mph
(N 13 kph)
- 10SM
16:53
Clear
54°F / 12°C 36°F / 2°C 51% 30.21 in
(1023 mb)
SSW 8.1 mph
(SSW 13 kph)
- 10SM
15:53
Clear
57°F / 14°C 34°F / 1°C 41% 30.18 in
(1022 mb)
SSW 5.8 mph
(SSW 9 kph)
- 10SM
14:53
Clear
57°F / 14°C 30°F / -1°C 36% 30.15 in
(1021 mb)
NNW 4.6 mph
(NNW 7 kph)
- 10SM
13:53
Clear
57°F / 14°C 36°F / 2°C 44% 30.18 in
(1022 mb)
W 4.6 mph
(W 7 kph)
- 10SM
12:53
Clear
54°F / 12°C 37°F / 3°C 54% 30.21 in
(1023 mb)
Variable 3.5 mph
(Variable 6 kph)
- 10SM
11:53
Clear
52°F / 11°C 37°F / 3°C 58% 30.27 in
(1025 mb)
Variable 4.6 mph
(Variable 7 kph)
- 10SM
10:53
Clear
48°F / 9°C 37°F / 3°C 66% 30.27 in
(1025 mb)
W 3.5 mph
(W 6 kph)
- 10SM
09:53
Clear
43°F / 6°C 37°F / 3°C 81% 30.27 in
(1025 mb)
W 5.8 mph
(W 9 kph)
- 9SM
08:53
Clear
39°F / 4°C 36°F / 2°C 87% 30.27 in
(1025 mb)
SSW 5.8 mph
(SSW 9 kph)
- 10SM
07:53
Clear
34°F / 1°C 32°F / 0°C 93% 30.24 in
(1024 mb)
SSW 5.8 mph
(SSW 9 kph)
- 8SM
06:53
Clear
30°F / -1°C 28°F / -2°C 93% 30.24 in
(1024 mb)
SSW 8.1 mph
(SSW 13 kph)
- 9SM
05:53
Clear
32°F / 0°C 30°F / -1°C 93% 30.21 in
(1023 mb)
SSW 6.9 mph
(SSW 11 kph)
- 10SM
04:53
Clear
34°F / 1°C 30°F / -1°C 87% 30.18 in
(1022 mb)
SSW 8.1 mph
(SSW 13 kph)
- 10SM
03:53
Clear
34°F / 1°C 30°F / -1°C 87% 30.18 in
(1022 mb)
SSW 5.8 mph
(SSW 9 kph)
- 10SM
02:53
Clear
34°F / 1°C 32°F / 0°C 93% 30.18 in
(1022 mb)
SSW 5.8 mph
(SSW 9 kph)
0.00 in
(0.00 mm)
10SM
01:53
Clear
34°F / 1°C 30°F / -1°C 87% 30.18 in
(1022 mb)
Calm - 10SM
00:53
Clear
36°F / 2°C 30°F / -1°C 81% 30.18 in
(1022 mb)
Calm - 10SM
Time Weather Temperature Dewpoint Humidity Pressure Winds Precip Visibility


Weather for websites

WeatherForYou.com, LLC is not responsible for any damages or problems caused by this service. Current weather conditions are obtained from the closest station including government and personal stations which may have varying degrees of accuracy. Weather forecasts are derived from the NOAA NDFD. Like all things, this site belongs to Jesus Christ... He just trusts me to maintain it. If you have any questions or comments email webmaster@weatherforyou.com

Copyright © 2015, WeatherForYou.com LLC. All rights reserved.